Voltar ao catálogo

ONEWEB-0217

AtivoComunicaçõesPO
NORAD 48245·PAYLOAD·🇬🇧 United Kingdom

Lançado Apr 25, 2021 de Vostochny Cosmodrome

Loading…

Próximas Passagens (próximas 24 horas)

TLE

AtualizadoSource: CelesTrak SupGP

Época: Sep 14, 2026, 16:13 UTC

1 48245C 21031AM  26257.67621944 -.00001237  00000+0 -33393-2 0  2575
2 48245  87.8898 271.8573 0001722  84.0235  15.5495 13.14503452    18

Acompanhe ONEWEB-0217 em tempo real com AllMySat

Download on the App Store